����������;��������(kVARh)
2019-04-15 00:00;3,9
2019-04-15 00:15;4,6
2019-04-15 00:30;5,9
2019-04-15 00:45;6,7
2019-04-15 01:00;5,1
2019-04-15 01:15;5
2019-04-15 01:30;5,2
2019-04-15 01:45;5,9
2019-04-15 02:00;5,65
2019-04-15 02:15;4,35
2019-04-15 02:30;3,2
2019-04-15 02:45;2,3
2019-04-15 03:00;3
2019-04-15 03:15;3
2019-04-15 03:30;3,5
2019-04-15 03:45;3,1
2019-04-15 04:00;4,95
2019-04-15 04:15;2,65
2019-04-15 04:30;2,1
2019-04-15 04:45;3,3
2019-04-15 05:00;2,45
2019-04-15 05:15;2,25
2019-04-15 05:30;2,6
2019-04-15 05:45;1,15
2019-04-15 06:00;1,55
2019-04-15 06:15;0,65
2019-04-15 06:30;1,85
2019-04-15 06:45;4,6
2019-04-15 07:00;2,6
2019-04-15 07:15;1,5
2019-04-15 07:30;24,55
2019-04-15 07:45;15,85
2019-04-15 08:00;14,2
2019-04-15 08:15;32,8
2019-04-15 08:30;30,75
2019-04-15 08:45;35,6
2019-04-15 09:00;33,5
2019-04-15 09:15;31,8
2019-04-15 09:30;27,35
2019-04-15 09:45;30,8
2019-04-15 10:00;29,45
2019-04-15 10:15;37
2019-04-15 10:30;38,1
2019-04-15 10:45;38,1
2019-04-15 11:00;35,85
2019-04-15 11:15;38,5
2019-04-15 11:30;38
2019-04-15 11:45;35,5
2019-04-15 12:00;37,55
2019-04-15 12:15;33,2
2019-04-15 12:30;41,15
2019-04-15 12:45;42,6
2019-04-15 13:00;40,9
2019-04-15 13:15;34,7
2019-04-15 13:30;41,3
2019-04-15 13:45;38,3
2019-04-15 14:00;40
2019-04-15 14:15;39,9
2019-04-15 14:30;36,95
2019-04-15 14:45;44,35
2019-04-15 15:00;37
2019-04-15 15:15;43,6
2019-04-15 15:30;43,7
2019-04-15 15:45;42,15
2019-04-15 16:00;41,9
2019-04-15 16:15;39,5
2019-04-15 16:30;37,55
2019-04-15 16:45;30,35
2019-04-15 17:00;30,7
2019-04-15 17:15;31,55
2019-04-15 17:30;28,05
2019-04-15 17:45;33,4
2019-04-15 18:00;28,05
2019-04-15 18:15;28,2
2019-04-15 18:30;24,05
2019-04-15 18:45;28,35
2019-04-15 19:00;30,6
2019-04-15 19:15;29,55
2019-04-15 19:30;29,65
2019-04-15 19:45;29,15
2019-04-15 20:00;28,05
2019-04-15 20:15;26
2019-04-15 20:30;22,25
2019-04-15 20:45;19,8
2019-04-15 21:00;18,7
2019-04-15 21:15;19,85
2019-04-15 21:30;20,2
2019-04-15 21:45;15,35
2019-04-15 22:00;13,3
2019-04-15 22:15;13,8
2019-04-15 22:30;12,35
2019-04-15 22:45;13,3
2019-04-15 23:00;15,15
2019-04-15 23:15;12,9
2019-04-15 23:30;16,2
2019-04-15 23:45;15,7
2019-04-16 00:00;12,85
2019-04-16 00:15;13
2019-04-16 00:30;15
2019-04-16 00:45;11,4
2019-04-16 01:00;8,35
2019-04-16 01:15;9,5
2019-04-16 01:30;9,9
2019-04-16 01:45;10,4
2019-04-16 02:00;9,95
2019-04-16 02:15;10,55
2019-04-16 02:30;10,75
2019-04-16 02:45;10,9
2019-04-16 03:00;9,4
2019-04-16 03:15;10,1
2019-04-16 03:30;11,7
2019-04-16 03:45;12,8
2019-04-16 04:00;11,6
2019-04-16 04:15;11,55
2019-04-16 04:30;10,7
2019-04-16 04:45;14,25
2019-04-16 05:00;14,7
2019-04-16 05:15;14,1
2019-04-16 05:30;13,75
2019-04-16 05:45;13,6
2019-04-16 06:00;11,25
2019-04-16 06:15;10,4
2019-04-16 06:30;12,35
2019-04-16 06:45;13,4
2019-04-16 07:00;13,65
2019-04-16 07:15;11,7
2019-04-16 07:30;40,4
2019-04-16 07:45;10,85
2019-04-16 08:00;16,9
2019-04-16 08:15;13,6
2019-04-16 08:30;18,5
2019-04-16 08:45;20,05
2019-04-16 09:00;29,1
2019-04-16 09:15;44,05
2019-04-16 09:30;45,1
2019-04-16 09:45;47,5
2019-04-16 10:00;49
2019-04-16 10:15;53
2019-04-16 10:30;52,95
2019-04-16 10:45;51,9
2019-04-16 11:00;51
2019-04-16 11:15;60,75
2019-04-16 11:30;57,4
2019-04-16 11:45;61,35
2019-04-16 12:00;53,95
2019-04-16 12:15;58,95
2019-04-16 12:30;51,4
2019-04-16 12:45;55,35
2019-04-16 13:00;51,35
2019-04-16 13:15;56,4
2019-04-16 13:30;47,9
2019-04-16 13:45;48,95
2019-04-16 14:00;46,05
2019-04-16 14:15;57
2019-04-16 14:30;44,3
2019-04-16 14:45;44,85
2019-04-16 15:00;41,5
2019-04-16 15:15;47,1
2019-04-16 15:30;43,6
2019-04-16 15:45;47,55
2019-04-16 16:00;44,4
2019-04-16 16:15;46,5
2019-04-16 16:30;46,25
2019-04-16 16:45;50
2019-04-16 17:00;47,5
2019-04-16 17:15;38,55
2019-04-16 17:30;40,9
2019-04-16 17:45;39,2
2019-04-16 18:00;41,1
2019-04-16 18:15;36
2019-04-16 18:30;33,75
2019-04-16 18:45;25,8
2019-04-16 19:00;28,25
2019-04-16 19:15;30,9
2019-04-16 19:30;30,4
2019-04-16 19:45;29,75
2019-04-16 20:00;29,25
2019-04-16 20:15;24,4
2019-04-16 20:30;20,45
2019-04-16 20:45;19,95
2019-04-16 21:00;19,65
2019-04-16 21:15;20,25
2019-04-16 21:30;22,75
2019-04-16 21:45;22,65
2019-04-16 22:00;23,15
2019-04-16 22:15;21,25
2019-04-16 22:30;17
2019-04-16 22:45;17,45
2019-04-16 23:00;18,75
2019-04-16 23:15;14,5
2019-04-16 23:30;12,05
2019-04-16 23:45;11,55
2019-04-17 00:00;11,55
2019-04-17 00:15;14,35
2019-04-17 00:30;10,5
2019-04-17 00:45;9,9
2019-04-17 01:00;12,2
2019-04-17 01:15;11
2019-04-17 01:30;13,65
2019-04-17 01:45;13,4
2019-04-17 02:00;12,8
2019-04-17 02:15;7,45
2019-04-17 02:30;7,75
2019-04-17 02:45;8,5
2019-04-17 03:00;8,45
2019-04-17 03:15;8,25
2019-04-17 03:30;8,9
2019-04-17 03:45;8,6
2019-04-17 04:00;9
2019-04-17 04:15;8,1
2019-04-17 04:30;7,55
2019-04-17 04:45;8,3
2019-04-17 05:00;8,55
2019-04-17 05:15;7,7
2019-04-17 05:30;8,65
2019-04-17 05:45;8,4
2019-04-17 06:00;7,8
2019-04-17 06:15;6,5
2019-04-17 06:30;8,1
2019-04-17 06:45;6,7
2019-04-17 07:00;5,8
2019-04-17 07:15;5,2
2019-04-17 07:30;36,25
2019-04-17 07:45;6,05
2019-04-17 08:00;11,35
2019-04-17 08:15;9,1
2019-04-17 08:30;12,25
2019-04-17 08:45;15,7
2019-04-17 09:00;16,7
2019-04-17 09:15;28,45
2019-04-17 09:30;29,65
2019-04-17 09:45;35,9
2019-04-17 10:00;34
2019-04-17 10:15;32,9
2019-04-17 10:30;27,4
2019-04-17 10:45;35,1
2019-04-17 11:00;30,55
2019-04-17 11:15;35,1
2019-04-17 11:30;39,15
2019-04-17 11:45;43,85
2019-04-17 12:00;36,2
2019-04-17 12:15;40,1
2019-04-17 12:30;35,9
2019-04-17 12:45;39,3
2019-04-17 13:00;40,7
2019-04-17 13:15;35,5
2019-04-17 13:30;39,7
2019-04-17 13:45;36,2
2019-04-17 14:00;44,4
2019-04-17 14:15;37,05
2019-04-17 14:30;43,5
2019-04-17 14:45;28,9
2019-04-17 15:00;29,75
2019-04-17 15:15;31,7
2019-04-17 15:30;28,65
2019-04-17 15:45;32,2
2019-04-17 16:00;30,25
2019-04-17 16:15;29,55
2019-04-17 16:30;27,95
2019-04-17 16:45;17,95
2019-04-17 17:00;21,45
2019-04-17 17:15;16,15
2019-04-17 17:30;23,2
2019-04-17 17:45;27,9
2019-04-17 18:00;17,5
2019-04-17 18:15;17,8
2019-04-17 18:30;16,45
2019-04-17 18:45;17,45
2019-04-17 19:00;17,55
2019-04-17 19:15;17,15
2019-04-17 19:30;16,4
2019-04-17 19:45;17,15
2019-04-17 20:00;15,05
2019-04-17 20:15;13,5
2019-04-17 20:30;11,9
2019-04-17 20:45;14,4
2019-04-17 21:00;16,55
2019-04-17 21:15;17,8
2019-04-17 21:30;15,35
2019-04-17 21:45;12,7
2019-04-17 22:00;11,55
2019-04-17 22:15;18
2019-04-17 22:30;18,45
2019-04-17 22:45;19,6
2019-04-17 23:00;20
2019-04-17 23:15;16,2
2019-04-17 23:30;13,1
2019-04-17 23:45;14
2019-04-18 00:00;12,4
2019-04-18 00:15;7,45
2019-04-18 00:30;9,45
2019-04-18 00:45;5,9
2019-04-18 01:00;6,8
2019-04-18 01:15;8,15
2019-04-18 01:30;6,85
2019-04-18 01:45;7,95
2019-04-18 02:00;8,2
2019-04-18 02:15;8,85
2019-04-18 02:30;3,3
2019-04-18 02:45;2,9
2019-04-18 03:00;2,85
2019-04-18 03:15;2,45
2019-04-18 03:30;4,9
2019-04-18 03:45;4,45
2019-04-18 04:00;4,1
2019-04-18 04:15;2,45
2019-04-18 04:30;3
2019-04-18 04:45;3,4
2019-04-18 05:00;2,7
2019-04-18 05:15;2,25
2019-04-18 05:30;2,75
2019-04-18 05:45;2,85
2019-04-18 06:00;3,05
2019-04-18 06:15;0,1
2019-04-18 06:30;9,2
2019-04-18 06:45;10,6
2019-04-18 07:00;10,15
2019-04-18 07:15;8,05
2019-04-18 07:30;29,7
2019-04-18 07:45;1,9
2019-04-18 08:00;11,7
2019-04-18 08:15;9,2
2019-04-18 08:30;14,15
2019-04-18 08:45;17,75
2019-04-18 09:00;11,4
2019-04-18 09:15;19,3
2019-04-18 09:30;25,4
2019-04-18 09:45;29,55
2019-04-18 10:00;29,4
2019-04-18 10:15;34,35
2019-04-18 10:30;35,45
2019-04-18 10:45;40,35
2019-04-18 11:00;39,15
2019-04-18 11:15;35,6
2019-04-18 11:30;42,35
2019-04-18 11:45;44
2019-04-18 12:00;48,7
2019-04-18 12:15;42,8
2019-04-18 12:30;44,7
2019-04-18 12:45;39,8
2019-04-18 13:00;40,95
2019-04-18 13:15;42,1
2019-04-18 13:30;44,15
2019-04-18 13:45;44,3
2019-04-18 14:00;45,15
2019-04-18 14:15;50,1
2019-04-18 14:30;49
2019-04-18 14:45;47,25
2019-04-18 15:00;49,65
2019-04-18 15:15;45,55
2019-04-18 15:30;44,8
2019-04-18 15:45;38,55
2019-04-18 16:00;33,65
2019-04-18 16:15;35,7
2019-04-18 16:30;28,4
2019-04-18 16:45;26,2
2019-04-18 17:00;31,75
2019-04-18 17:15;26,25
2019-04-18 17:30;25,7
2019-04-18 17:45;26,9
2019-04-18 18:00;21
2019-04-18 18:15;22,55
2019-04-18 18:30;22,45
2019-04-18 18:45;23,85
2019-04-18 19:00;26,05
2019-04-18 19:15;22,65
2019-04-18 19:30;22,65
2019-04-18 19:45;23,85
2019-04-18 20:00;22,45
2019-04-18 20:15;22,2
2019-04-18 20:30;18,05
2019-04-18 20:45;16,35
2019-04-18 21:00;16,35
2019-04-18 21:15;16,2
2019-04-18 21:30;20,75
2019-04-18 21:45;17,5
2019-04-18 22:00;15,45
2019-04-18 22:15;11,15
2019-04-18 22:30;13,1
2019-04-18 22:45;13,3
2019-04-18 23:00;5,95
2019-04-18 23:15;5,95
2019-04-18 23:30;8,05
2019-04-18 23:45;9,35
2019-04-19 00:00;9,3
2019-04-19 00:15;10,35
2019-04-19 00:30;10,65
2019-04-19 00:45;10,7
2019-04-19 01:00;6,15
2019-04-19 01:15;6,85
2019-04-19 01:30;6,05
2019-04-19 01:45;6,6
2019-04-19 02:00;6,5
2019-04-19 02:15;6,85
2019-04-19 02:30;6,1
2019-04-19 02:45;8,05
2019-04-19 03:00;7,05
2019-04-19 03:15;8,7
2019-04-19 03:30;9,85
2019-04-19 03:45;8,35
2019-04-19 04:00;9,05
2019-04-19 04:15;7,35
2019-04-19 04:30;8,1
2019-04-19 04:45;8,55
2019-04-19 05:00;7,75
2019-04-19 05:15;8,05
2019-04-19 05:30;8,95
2019-04-19 05:45;8,55
2019-04-19 06:00;8,45
2019-04-19 06:15;6
2019-04-19 06:30;5,65
2019-04-19 06:45;6
2019-04-19 07:00;5,75
2019-04-19 07:15;8,4
2019-04-19 07:30;37,25
2019-04-19 07:45;15,25
2019-04-19 08:00;14,7
2019-04-19 08:15;12,15
2019-04-19 08:30;16,65
2019-04-19 08:45;20,3
2019-04-19 09:00;27,6
2019-04-19 09:15;27,9
2019-04-19 09:30;36,05
2019-04-19 09:45;38,85
2019-04-19 10:00;41,85
2019-04-19 10:15;42,45
2019-04-19 10:30;44,5
2019-04-19 10:45;45
2019-04-19 11:00;46,65
2019-04-19 11:15;39,05
2019-04-19 11:30;44,65
2019-04-19 11:45;46,05
2019-04-19 12:00;43,45
2019-04-19 12:15;42,1
2019-04-19 12:30;38,05
2019-04-19 12:45;43,15
2019-04-19 13:00;45,65
2019-04-19 13:15;43,85
2019-04-19 13:30;43,1
2019-04-19 13:45;47,15
2019-04-19 14:00;38,8
2019-04-19 14:15;40,75
2019-04-19 14:30;34,8
2019-04-19 14:45;40,15
2019-04-19 15:00;33,35
2019-04-19 15:15;33,35
2019-04-19 15:30;27,25
2019-04-19 15:45;25,7
2019-04-19 16:00;31,2
2019-04-19 16:15;26,1
2019-04-19 16:30;27,65
2019-04-19 16:45;23,5
2019-04-19 17:00;20,4
2019-04-19 17:15;23,85
2019-04-19 17:30;17,35
2019-04-19 17:45;21,25
2019-04-19 18:00;14,4
2019-04-19 18:15;13,85
2019-04-19 18:30;13,4
2019-04-19 18:45;10,9
2019-04-19 19:00;16,2
2019-04-19 19:15;20,25
2019-04-19 19:30;22,55
2019-04-19 19:45;24,1
2019-04-19 20:00;20,65
2019-04-19 20:15;15,1
2019-04-19 20:30;12,55
2019-04-19 20:45;11,4
2019-04-19 21:00;12,05
2019-04-19 21:15;12,8
2019-04-19 21:30;13,55
2019-04-19 21:45;11,05
2019-04-19 22:00;9,25
2019-04-19 22:15;5,9
2019-04-19 22:30;2,8
2019-04-19 22:45;4
2019-04-19 23:00;7,25
2019-04-19 23:15;6,95
2019-04-19 23:30;2,55
2019-04-19 23:45;1,05
2019-04-20 00:00;1,75
2019-04-20 00:15;1,45
2019-04-20 00:30;1
2019-04-20 00:45;0
2019-04-20 01:00;0
2019-04-20 01:15;0
2019-04-20 01:30;0
2019-04-20 01:45;0,65
2019-04-20 02:00;1
2019-04-20 02:15;1,95
2019-04-20 02:30;2,05
2019-04-20 02:45;2,05
2019-04-20 03:00;3
2019-04-20 03:15;3,45
2019-04-20 03:30;3,4
2019-04-20 03:45;3,35
2019-04-20 04:00;4
2019-04-20 04:15;2,8
2019-04-20 04:30;2,7
2019-04-20 04:45;2,55
2019-04-20 05:00;2,6
2019-04-20 05:15;3,15
2019-04-20 05:30;3,3
2019-04-20 05:45;6,3
2019-04-20 06:00;6,8
2019-04-20 06:15;5,1
2019-04-20 06:30;4,75
2019-04-20 06:45;3
2019-04-20 07:00;2,6
2019-04-20 07:15;0,7
2019-04-20 07:30;0
2019-04-20 07:45;0
2019-04-20 08:00;0
2019-04-20 08:15;0,15
2019-04-20 08:30;0,9
2019-04-20 08:45;1,35
2019-04-20 09:00;1,35
2019-04-20 09:15;0,9
2019-04-20 09:30;0,25
2019-04-20 09:45;0,1
2019-04-20 10:00;0,2
2019-04-20 10:15;0,05
2019-04-20 10:30;0
2019-04-20 10:45;0,25
2019-04-20 11:00;0,3
2019-04-20 11:15;0,3
2019-04-20 11:30;2,3
2019-04-20 11:45;6,3
2019-04-20 12:00;8,1
2019-04-20 12:15;9,6
2019-04-20 12:30;8,65
2019-04-20 12:45;8,35
2019-04-20 13:00;4,5
2019-04-20 13:15;3,2
2019-04-20 13:30;3,55
2019-04-20 13:45;4,15
2019-04-20 14:00;2,75
2019-04-20 14:15;3,55
2019-04-20 14:30;3,25
2019-04-20 14:45;4,85
2019-04-20 15:00;6,9
2019-04-20 15:15;7,95
2019-04-20 15:30;8,8
2019-04-20 15:45;7,75
2019-04-20 16:00;9,95
2019-04-20 16:15;12,95
2019-04-20 16:30;11,55
2019-04-20 16:45;7,6
2019-04-20 17:00;5,8
2019-04-20 17:15;4,7
2019-04-20 17:30;5,5
2019-04-20 17:45;5,35
2019-04-20 18:00;5,65
2019-04-20 18:15;8,35
2019-04-20 18:30;6,6
2019-04-20 18:45;6,2
2019-04-20 19:00;10,15
2019-04-20 19:15;7,9
2019-04-20 19:30;9,2
2019-04-20 19:45;10,9
2019-04-20 20:00;7,95
2019-04-20 20:15;5,8
2019-04-20 20:30;2,85
2019-04-20 20:45;3,6
2019-04-20 21:00;2,8
2019-04-20 21:15;1,8
2019-04-20 21:30;0,75
2019-04-20 21:45;1,5
2019-04-20 22:00;2,4
2019-04-20 22:15;3,1
2019-04-20 22:30;3,4
2019-04-20 22:45;4,35
2019-04-20 23:00;2,75
2019-04-20 23:15;1,35
2019-04-20 23:30;0,1
2019-04-20 23:45;0
2019-04-21 00:00;0
2019-04-21 00:15;0
2019-04-21 00:30;0
2019-04-21 00:45;0
2019-04-21 01:00;0,45
2019-04-21 01:15;0
2019-04-21 01:30;0,3
2019-04-21 01:45;0
2019-04-21 02:00;0,95
2019-04-21 02:15;1,6
2019-04-21 02:30;4,35
2019-04-21 02:45;5
2019-04-21 03:00;4,8
2019-04-21 03:15;5,85
2019-04-21 03:30;5,4
2019-04-21 03:45;5,75
2019-04-21 04:00;3,8
2019-04-21 04:15;2
2019-04-21 04:30;2,15
2019-04-21 04:45;2,3
2019-04-21 05:00;1,9
2019-04-21 05:15;2,1
2019-04-21 05:30;2,15
2019-04-21 05:45;2,3
2019-04-21 06:00;2
2019-04-21 06:15;1,8
2019-04-21 06:30;2,35
2019-04-21 06:45;2,9
2019-04-21 07:00;1,65
2019-04-21 07:15;0,65
2019-04-21 07:30;0,95
2019-04-21 07:45;0,85
2019-04-21 08:00;0,65
2019-04-21 08:15;0,35
2019-04-21 08:30;0
2019-04-21 08:45;2,3
2019-04-21 09:00;4,3
2019-04-21 09:15;2,9
2019-04-21 09:30;1,9
2019-04-21 09:45;1,6
2019-04-21 10:00;2,65
2019-04-21 10:15;1,5
2019-04-21 10:30;0,85
2019-04-21 10:45;0,45
2019-04-21 11:00;0,15
2019-04-21 11:15;0,05
2019-04-21 11:30;0,45
2019-04-21 11:45;0,85
2019-04-21 12:00;5,35
2019-04-21 12:15;8,2
2019-04-21 12:30;10,65
2019-04-21 12:45;10,15
2019-04-21 13:00;10,6
2019-04-21 13:15;7,7
2019-04-21 13:30;3,6
2019-04-21 13:45;4,1
2019-04-21 14:00;4,1
2019-04-21 14:15;5
2019-04-21 14:30;4,65
2019-04-21 14:45;4,95
2019-04-21 15:00;6,45
2019-04-21 15:15;8,4
2019-04-21 15:30;9,3
2019-04-21 15:45;10,1
2019-04-21 16:00;10,25
2019-04-21 16:15;9,7
2019-04-21 16:30;7,8
2019-04-21 16:45;9,1
2019-04-21 17:00;9,6
2019-04-21 17:15;9,6
2019-04-21 17:30;9,3
2019-04-21 17:45;5,35
2019-04-21 18:00;3,65
2019-04-21 18:15;4,1
2019-04-21 18:30;3,7
2019-04-21 18:45;2,8
2019-04-21 19:00;3,45
2019-04-21 19:15;2,65
2019-04-21 19:30;5,3
2019-04-21 19:45;7,05
2019-04-21 20:00;7,1
2019-04-21 20:15;4,25
2019-04-21 20:30;0,9
2019-04-21 20:45;1,15
2019-04-21 21:00;0,35
2019-04-21 21:15;0,5
2019-04-21 21:30;1,05
2019-04-21 21:45;0,35
2019-04-21 22:00;0,85
2019-04-21 22:15;0,85
2019-04-21 22:30;0,8
2019-04-21 22:45;0,85
2019-04-21 23:00;4
2019-04-21 23:15;3,35
2019-04-21 23:30;6
2019-04-21 23:45;6

